| time (UTC) | temp F | wind direction | speed MPH | gust MPH | rain 1hr in | rain 24hr in | rain mn in | humidity % | barometer mb |
| 20260508170008 | 66 | 247 | 9.0 | 24.0 | 0.00 | 0.00 | 0.00 | 29 | 1006.6 |
| 20260508165503 | 66 | 293 | 12.0 | 24.0 | 0.00 | 0.00 | 0.00 | 27 | 1006.7 |
| 20260508165004 | 66 | 282 | 12.0 | 23.0 | 0.00 | 0.00 | 0.00 | 28 | 1006.7 |
| 20260508164513 | 65 | 242 | 8.0 | 17.0 | 0.00 | 0.00 | 0.00 | 28 | 1006.7 |
| 20260508164010 | 65 | 293 | 6.0 | 22.0 | 0.00 | 0.00 | 0.00 | 27 | 1006.8 |
| 20260508163506 | 65 | 297 | 12.0 | 22.0 | 0.00 | 0.00 | 0.00 | 28 | 1006.8 |
| 20260508163011 | 65 | 287 | 12.0 | 24.0 | 0.00 | 0.00 | 0.00 | 27 | 1006.8 |
| 20260508162507 | 64 | 254 | 10.0 | 24.0 | 0.00 | 0.00 | 0.00 | 35 | 1006.9 |
| 20260508162008 | 62 | 307 | 2.0 | 11.0 | 0.00 | 0.00 | 0.00 | 33 | 1006.9 |
| 20260508161506 | 62 | 316 | 5.0 | 11.0 | 0.00 | 0.00 | 0.00 | 32 | 1007.1 |
| 20260508161005 | 62 | 259 | 3.0 | 10.0 | 0.00 | 0.00 | 0.00 | 37 | 1007.1 |
| 20260508160506 | 61 | 221 | 3.0 | 14.0 | 0.00 | 0.00 | 0.00 | 37 | 1007.2 |
| 20260508160015 | 61 | 245 | 8.0 | 14.0 | 0.00 | 0.00 | 0.00 | 34 | 1007.3 |
| 20260508155504 | 62 | 207 | 8.0 | 15.0 | 0.00 | 0.00 | 0.00 | 34 | 1007.2 |
| 20260508155004 | 62 | 257 | 5.0 | 16.0 | 0.00 | 0.00 | 0.00 | 34 | 1007.3 |
| 20260508154505 | 61 | 257 | 3.0 | 16.0 | 0.00 | 0.00 | 0.00 | 37 | 1007.5 |
| 20260508154006 | 60 | 296 | 6.0 | 13.0 | 0.00 | 0.00 | 0.00 | 38 | 1007.6 |
| 20260508153506 | 59 | 240 | 8.0 | 15.0 | 0.00 | 0.00 | 0.00 | 36 | 1007.6 |
| 20260508153023 | 59 | 225 | 9.0 | 15.0 | 0.00 | 0.00 | 0.00 | 35 | 1007.8 |
| 20260508152505 | 59 | 238 | 9.0 | 15.0 | 0.00 | 0.00 | 0.00 | 36 | 1007.8 |
| 20260508152003 | 59 | 213 | 7.0 | 13.0 | 0.00 | 0.00 | 0.00 | 36 | 1007.7 |
| 20260508151509 | 58 | 254 | 6.0 | 15.0 | 0.00 | 0.00 | 0.00 | 37 | 1007.7 |
| 20260508151002 | 58 | 240 | 7.0 | 17.0 | 0.00 | 0.00 | 0.00 | 37 | 1007.8 |
| 20260508150502 | 58 | 257 | 8.0 | 17.0 | 0.00 | 0.00 | 0.00 | 36 | 1007.9 |
| 20260508150016 | 57 | 219 | 6.0 | 14.0 | 0.00 | 0.00 | 0.00 | 37 | 1008.0 |
| 20260508145504 | 57 | 219 | 8.0 | 14.0 | 0.00 | 0.00 | 0.00 | 36 | 1007.9 |
| 20260508145002 | 57 | 225 | 5.0 | 13.0 | 0.00 | 0.00 | 0.00 | 40 | 1007.8 |
| 20260508144511 | 57 | 175 | 6.0 | 13.0 | 0.00 | 0.00 | 0.00 | 40 | 1007.9 |
| 20260508144006 | 56 | 202 | 6.0 | 15.0 | 0.00 | 0.00 | 0.00 | 39 | 1007.9 |
| 20260508143505 | 56 | 259 | 5.0 | 15.0 | 0.00 | 0.00 | 0.00 | 40 | 1007.9 |
| 20260508143007 | 56 | 223 | 8.0 | 15.0 | 0.00 | 0.00 | 0.00 | 40 | 1007.9 |
| 20260508142503 | 56 | 270 | 6.0 | 12.0 | 0.00 | 0.00 | 0.00 | 40 | 1008.0 |
| 20260508142003 | 55 | 250 | 5.0 | 14.0 | 0.00 | 0.00 | 0.00 | 43 | 1008.0 |
| 20260508141506 | 55 | 250 | 7.0 | 14.0 | 0.00 | 0.00 | 0.00 | 39 | 1008.0 |
| 20260508141006 | 55 | 210 | 5.0 | 11.0 | 0.00 | 0.00 | 0.00 | 43 | 1008.1 |
| 20260508140502 | 54 | 193 | 4.0 | 12.0 | 0.00 | 0.00 | 0.00 | 42 | 1008.1 |
| 20260508140017 | 54 | 259 | 6.0 | 12.0 | 0.00 | 0.00 | 0.00 | 43 | 1008.1 |
| 20260508135507 | 53 | 235 | 3.0 | 10.0 | 0.00 | 0.00 | 0.00 | 43 | 1008.1 |
| 20260508135006 | 53 | 214 | 3.0 | 15.0 | 0.00 | 0.00 | 0.00 | 43 | 1008.2 |
| 20260508134529 | 52 | 189 | 5.0 | 15.0 | 0.00 | 0.00 | 0.00 | 43 | 1008.2 |
| 20260508134004 | 52 | 198 | 5.0 | 13.0 | 0.00 | 0.00 | 0.00 | 44 | 1008.3 |
| 20260508133504 | 52 | 238 | 6.0 | 13.0 | 0.00 | 0.00 | 0.00 | 44 | 1008.4 |
| 20260508133020 | 51 | 265 | 6.0 | 12.0 | 0.00 | 0.00 | 0.00 | 45 | 1008.5 |
| 20260508132504 | 51 | 250 | 5.0 | 11.0 | 0.00 | 0.00 | 0.00 | 44 | 1008.4 |
| 20260508132003 | 50 | 219 | 5.0 | 11.0 | 0.00 | 0.00 | 0.00 | 44 | 1008.4 |
| 20260508131508 | 50 | 242 | 3.0 | 9.0 | 0.00 | 0.00 | 0.00 | 45 | 1008.5 |
| 20260508131004 | 50 | 282 | 4.0 | 13.0 | 0.00 | 0.00 | 0.00 | 44 | 1008.4 |
| 20260508130503 | 50 | 221 | 5.0 | 13.0 | 0.00 | 0.00 | 0.00 | 44 | 1008.6 |
| 20260508130010 | 49 | 187 | 6.0 | 12.0 | 0.00 | 0.00 | 0.00 | 46 | 1008.5 |
| 20260508125508 | 48 | 198 | 6.0 | 11.0 | 0.00 | 0.00 | 0.00 | 45 | 1008.5 |
| 20260508125007 | 48 | 227 | 5.0 | 11.0 | 0.00 | 0.00 | 0.00 | 47 | 1008.5 |
| 20260508124510 | 47 | 240 | 4.0 | 12.0 | 0.00 | 0.00 | 0.00 | 47 | 1008.6 |
| 20260508124007 | 47 | 188 | 3.0 | 12.0 | 0.00 | 0.00 | 0.00 | 47 | 1008.6 |
| 20260508123506 | 46 | 207 | 4.0 | 9.0 | 0.00 | 0.00 | 0.00 | 48 | 1008.6 |
| 20260508123006 | 46 | 221 | 4.0 | 9.0 | 0.00 | 0.00 | 0.00 | 49 | 1008.5 |
| 20260508122506 | 45 | 230 | 4.0 | 9.0 | 0.00 | 0.00 | 0.00 | 50 | 1008.5 |
| 20260508122004 | 45 | 221 | 5.0 | 9.0 | 0.00 | 0.00 | 0.00 | 50 | 1008.6 |
| 20260508121535 | 44 | 93 | 2.0 | 7.0 | 0.00 | 0.00 | 0.00 | 51 | 1008.5 |
| 20260508121004 | 44 | 201 | 3.0 | 9.0 | 0.00 | 0.00 | 0.00 | 51 | 1008.5 |
| 20260508120507 | 44 | 207 | 4.0 | 9.0 | 0.00 | 0.00 | 0.00 | 51 | 1008.5 |
| 20260508120018 | 43 | 219 | 3.0 | 8.0 | 0.00 | 0.00 | 0.00 | 52 | 1008.4 |
| 20260508115508 | 43 | 178 | 4.0 | 8.0 | 0.00 | 0.00 | 0.00 | 52 | 1008.4 |
| 20260508115005 | 43 | 217 | 4.0 | 8.0 | 0.00 | 0.00 | 0.00 | 52 | 1008.5 |
| 20260508114519 | 42 | 178 | 3.0 | 7.0 | 0.00 | 0.00 | 0.00 | 52 | 1008.3 |
| 20260508114007 | 42 | 213 | 4.0 | 7.0 | 0.00 | 0.00 | 0.00 | 53 | 1008.3 |
| 20260508113503 | 42 | 212 | 2.0 | 7.0 | 0.00 | 0.00 | 0.00 | 54 | 1008.4 |
| 20260508113016 | 41 | 198 | 3.0 | 7.0 | 0.00 | 0.00 | 0.00 | 54 | 1008.4 |
| 20260508112504 | 41 | 167 | 2.0 | 6.0 | 0.00 | 0.00 | 0.00 | 56 | 1008.5 |
| 20260508112004 | 41 | 165 | 2.0 | 5.0 | 0.00 | 0.00 | 0.00 | 56 | 1008.5 |
| 20260508111512 | 41 | 250 | 2.0 | 5.0 | 0.00 | 0.00 | 0.00 | 56 | 1008.3 |
| 20260508111004 | 41 | 259 | 1.0 | 5.0 | 0.00 | 0.00 | 0.00 | 57 | 1008.3 |
| 20260508110507 | 41 | 178 | 2.0 | 4.0 | 0.00 | 0.00 | 0.00 | 57 | 1008.3 |
| 20260508110010 | 41 | 201 | 2.0 | 4.0 | 0.00 | 0.00 | 0.00 | 57 | 1008.3 |
| 20260508105509 | 41 | 209 | 2.0 | 4.0 | 0.00 | 0.00 | 0.00 | 56 | 1008.3 |
| 20260508105009 | 41 | 229 | 1.0 | 4.0 | 0.00 | 0.00 | 0.00 | 56 | 1008.3 |
| 20260508104525 | 42 | 178 | 1.0 | 5.0 | 0.00 | 0.00 | 0.00 | 56 | 1008.3 |
| 20260508104007 | 42 | 238 | 2.0 | 5.0 | 0.00 | 0.00 | 0.00 | 56 | 1008.3 |
| 20260508103504 | 42 | 212 | 1.0 | 4.0 | 0.00 | 0.00 | 0.00 | 55 | 1008.3 |
| 20260508103025 | 42 | 221 | 2.0 | 7.0 | 0.00 | 0.00 | 0.00 | 54 | 1008.3 |
| 20260508102504 | 42 | 200 | 2.0 | 7.0 | 0.00 | 0.00 | 0.00 | 53 | 1008.3 |
| 20260508102005 | 42 | 196 | 2.0 | 6.0 | 0.00 | 0.00 | 0.00 | 52 | 1008.3 |
| 20260508101513 | 42 | 200 | 2.0 | 6.0 | 0.00 | 0.00 | 0.00 | 52 | 1008.4 |
| 20260508101011 | 42 | 205 | 2.0 | 5.0 | 0.00 | 0.00 | 0.00 | 52 | 1008.4 |
| 20260508100503 | 42 | 232 | 3.0 | 5.0 | 0.00 | 0.00 | 0.00 | 51 | 1008.5 |
| 20260508100018 | 42 | 205 | 3.0 | 5.0 | 0.00 | 0.00 | 0.00 | 51 | 1008.4 |
| 20260508095506 | 42 | 221 | 2.0 | 5.0 | 0.00 | 0.00 | 0.00 | 51 | 1008.4 |
| 20260508095011 | 42 | 229 | 3.0 | 5.0 | 0.00 | 0.00 | 0.00 | 50 | 1008.4 |
| 20260508094516 | 42 | 205 | 2.0 | 6.0 | 0.00 | 0.00 | 0.00 | 50 | 1008.5 |
| 20260508094007 | 42 | 219 | 2.0 | 6.0 | 0.00 | 0.00 | 0.00 | 50 | 1008.5 |
| 20260508093509 | 42 | 205 | 3.0 | 6.0 | 0.00 | 0.00 | 0.00 | 50 | 1008.5 |
| 20260508093020 | 42 | 218 | 3.0 | 7.0 | 0.00 | 0.00 | 0.00 | 51 | 1008.5 |
| 20260508092502 | 42 | 238 | 3.0 | 7.0 | 0.00 | 0.00 | 0.00 | 51 | 1008.5 |
| 20260508092006 | 42 | 265 | 3.0 | 6.0 | 0.00 | 0.00 | 0.00 | 51 | 1008.5 |
| 20260508091515 | 42 | 254 | 2.0 | 6.0 | 0.00 | 0.00 | 0.00 | 52 | 1008.5 |
| 20260508091005 | 42 | 232 | 2.0 | 6.0 | 0.00 | 0.00 | 0.00 | 53 | 1008.5 |
| 20260508090509 | 42 | 221 | 2.0 | 6.0 | 0.00 | 0.00 | 0.00 | 53 | 1008.5 |
| 20260508090024 | 42 | 225 | 2.0 | 5.0 | 0.00 | 0.00 | 0.00 | 53 | 1008.5 |
| 20260508085511 | 42 | 234 | 2.0 | 5.0 | 0.00 | 0.00 | 0.00 | 53 | 1008.5 |
| 20260508085007 | 42 | 202 | 2.0 | 5.0 | 0.00 | 0.00 | 0.00 | 52 | 1008.5 |
| 20260508084525 | 42 | 234 | 2.0 | 7.0 | 0.00 | 0.00 | 0.00 | 52 | 1008.6 |
| 20260508084008 | 42 | 226 | 2.0 | 7.0 | 0.00 | 0.00 | 0.00 | 53 | 1008.5 |
| 20260508083506 | 42 | 232 | 2.0 | 6.0 | 0.00 | 0.00 | 0.00 | 53 | 1008.5 |
| 20260508083104 | 42 | 232 | 2.0 | 6.0 | 0.00 | 0.00 | 0.00 | 53 | 1008.6 |
| 20260508082503 | 42 | 236 | 2.0 | 5.0 | 0.00 | 0.00 | 0.00 | 54 | 1008.6 |
| 20260508082009 | 42 | 216 | 1.0 | 5.0 | 0.00 | 0.00 | 0.00 | 54 | 1008.6 |
| 20260508081517 | 42 | 236 | 2.0 | 5.0 | 0.00 | 0.00 | 0.00 | 54 | 1008.7 |
| 20260508081005 | 42 | 284 | 1.0 | 4.0 | 0.00 | 0.00 | 0.00 | 54 | 1008.7 |
| 20260508080505 | 42 | 218 | 2.0 | 4.0 | 0.00 | 0.00 | 0.00 | 54 | 1008.7 |
| 20260508080016 | 42 | 219 | 2.0 | 4.0 | 0.00 | 0.00 | 0.00 | 54 | 1008.8 |
| 20260508075509 | 42 | 249 | 2.0 | 4.0 | 0.00 | 0.00 | 0.00 | 54 | 1008.8 |
| 20260508075010 | 42 | 229 | 2.0 | 4.0 | 0.00 | 0.00 | 0.00 | 55 | 1008.8 |
| 20260508074531 | 42 | 209 | 2.0 | 4.0 | 0.00 | 0.00 | 0.00 | 55 | 1008.8 |
| 20260508074010 | 42 | 254 | 2.0 | 4.0 | 0.00 | 0.00 | 0.00 | 54 | 1008.8 |
| 20260508073507 | 42 | 257 | 2.0 | 5.0 | 0.00 | 0.00 | 0.00 | 54 | 1008.9 |
| 20260508073027 | 42 | 250 | 2.0 | 5.0 | 0.00 | 0.00 | 0.00 | 54 | 1008.9 |
| 20260508072505 | 42 | 217 | 3.0 | 5.0 | 0.00 | 0.00 | 0.00 | 55 | 1009.0 |
| 20260508072007 | 42 | 236 | 2.0 | 5.0 | 0.00 | 0.00 | 0.00 | 55 | 1009.0 |
| 20260508071525 | 42 | 225 | 2.0 | 6.0 | 0.00 | 0.00 | 0.00 | 56 | 1009.0 |
| 20260508071006 | 42 | 211 | 3.0 | 6.0 | 0.00 | 0.00 | 0.00 | 54 | 1009.0 |
| 20260508070504 | 42 | 242 | 2.0 | 5.0 | 0.00 | 0.00 | 0.00 | 55 | 1009.1 |
| 20260508070024 | 42 | 221 | 2.0 | 5.0 | 0.00 | 0.00 | 0.00 | 55 | 1009.2 |
| 20260508065508 | 42 | 247 | 2.0 | 5.0 | 0.00 | 0.00 | 0.00 | 54 | 1009.2 |
| 20260508065008 | 42 | 212 | 3.0 | 5.0 | 0.00 | 0.00 | 0.00 | 55 | 1009.2 |
| 20260508064539 | 42 | 219 | 2.0 | 4.0 | 0.00 | 0.00 | 0.00 | 55 | 1009.2 |
| 20260508064011 | 42 | 236 | 2.0 | 5.0 | 0.00 | 0.00 | 0.00 | 56 | 1009.3 |
| 20260508063509 | 42 | 226 | 2.0 | 5.0 | 0.00 | 0.00 | 0.00 | 56 | 1009.3 |
| 20260508063018 | 42 | 227 | 2.0 | 5.0 | 0.00 | 0.00 | 0.00 | 57 | 1009.3 |
| 20260508062508 | 42 | 202 | 2.0 | 7.0 | 0.00 | 0.00 | 0.00 | 57 | 1009.4 |
| 20260508062009 | 42 | 203 | 3.0 | 7.0 | 0.00 | 0.00 | 0.00 | 58 | 1009.4 |
| 20260508061524 | 42 | 223 | 3.0 | 6.0 | 0.00 | 0.00 | 0.00 | 58 | 1009.5 |
| 20260508061008 | 42 | 219 | 3.0 | 5.0 | 0.00 | 0.00 | 0.00 | 59 | 1009.6 |
| 20260508060509 | 42 | 232 | 3.0 | 4.0 | 0.00 | 0.00 | 0.00 | 62 | 1009.6 |
| 20260508060024 | 42 | 225 | 2.0 | 4.0 | 0.00 | 0.00 | 0.00 | 62 | 1009.6 |
| 20260508055507 | 42 | 210 | 2.0 | 5.0 | 0.00 | 0.00 | 0.00 | 60 | 1009.5 |
| 20260508055008 | 42 | 208 | 2.0 | 5.0 | 0.00 | 0.00 | 0.00 | 60 | 1009.6 |
| 20260508054510 | 41 | 201 | 2.0 | 5.0 | 0.00 | 0.00 | 0.00 | 60 | 1009.7 |
| 20260508054005 | 41 | 203 | 3.0 | 5.0 | 0.00 | 0.00 | 0.00 | 61 | 1009.7 |
| 20260508053505 | 41 | 207 | 3.0 | 5.0 | 0.00 | 0.00 | 0.00 | 63 | 1009.7 |
| 20260508053005 | 41 | 215 | 2.0 | 5.0 | 0.00 | 0.00 | 0.00 | 63 | 1009.7 |
| 20260508052508 | 41 | 217 | 3.0 | 5.0 | 0.00 | 0.00 | 0.00 | 64 | 1009.7 |
| 20260508052004 | 41 | 236 | 2.0 | 5.0 | 0.00 | 0.00 | 0.00 | 65 | 1009.7 |
| 20260508051503 | 41 | 232 | 2.0 | 5.0 | 0.00 | 0.00 | 0.00 | 67 | 1009.7 |
| 20260508051003 | 41 | 221 | 3.0 | 5.0 | 0.00 | 0.00 | 0.00 | 68 | 1009.7 |
| 20260508050505 | 41 | 219 | 2.0 | 5.0 | 0.00 | 0.00 | 0.00 | 68 | 1009.7 |
| 20260508050018 | 41 | 228 | 2.0 | 4.0 | 0.00 | 0.00 | 0.00 | 67 | 1009.7 |
| 20260508045501 | 41 | 200 | 2.0 | 4.0 | 0.00 | 0.00 | 0.00 | 67 | 1009.7 |
| 20260508045005 | 42 | 225 | 3.0 | 4.0 | 0.00 | 0.00 | 0.00 | 67 | 1009.8 |
| 20260508044514 | 42 | 232 | 3.0 | 4.0 | 0.00 | 0.00 | 0.00 | 67 | 1009.8 |
| 20260508044006 | 42 | 234 | 2.0 | 4.0 | 0.00 | 0.00 | 0.00 | 67 | 1009.8 |
| 20260508043502 | 42 | 230 | 3.0 | 4.0 | 0.00 | 0.00 | 0.00 | 68 | 1009.9 |
| 20260508043014 | 42 | 238 | 2.0 | 4.0 | 0.00 | 0.00 | 0.00 | 67 | 1010.0 |
| 20260508042512 | 42 | 209 | 2.0 | 4.0 | 0.00 | 0.00 | 0.00 | 67 | 1010.0 |
| 20260508042002 | 42 | 232 | 2.0 | 4.0 | 0.00 | 0.00 | 0.00 | 67 | 1010.0 |
| 20260508041514 | 42 | 225 | 2.0 | 4.0 | 0.00 | 0.00 | 0.00 | 68 | 1010.1 |
| 20260508041002 | 42 | 221 | 2.0 | 3.0 | 0.00 | 0.00 | 0.00 | 67 | 1010.1 |
| 20260508040503 | 43 | 238 | 1.0 | 3.0 | 0.00 | 0.00 | 0.00 | 67 | 1010.1 |
| 20260508040009 | 43 | 247 | 0.0 | 4.0 | 0.00 | 0.00 | 0.00 | 66 | 1010.0 |
| 20260508035502 | 43 | 215 | 1.0 | 4.0 | 0.00 | 0.00 | 0.00 | 67 | 1010.0 |
| 20260508035007 | 43 | 228 | 3.0 | 4.0 | 0.00 | 0.00 | 0.00 | 67 | 1010.1 |
| 20260508034509 | 43 | 250 | 1.0 | 4.0 | 0.00 | 0.00 | 0.00 | 67 | 1010.2 |
| 20260508034002 | 43 | 225 | 2.0 | 4.0 | 0.00 | 0.00 | 0.00 | 67 | 1010.2 |
| 20260508033505 | 43 | 242 | 2.0 | 4.0 | 0.00 | 0.00 | 0.00 | 65 | 1010.2 |
| 20260508033022 | 43 | 230 | 2.0 | 5.0 | 0.00 | 0.00 | 0.00 | 65 | 1010.2 |
| 20260508032505 | 44 | 218 | 3.0 | 5.0 | 0.00 | 0.00 | 0.00 | 63 | 1010.4 |
| 20260508032006 | 44 | 225 | 2.0 | 4.0 | 0.00 | 0.00 | 0.00 | 61 | 1010.4 |
| 20260508031521 | 44 | 241 | 2.0 | 4.0 | 0.00 | 0.00 | 0.00 | 61 | 1010.4 |
| 20260508031002 | 44 | 219 | 2.0 | 4.0 | 0.00 | 0.00 | 0.00 | 60 | 1010.4 |
| 20260508030502 | 45 | 232 | 2.0 | 4.0 | 0.00 | 0.00 | 0.00 | 58 | 1010.4 |
| 20260508030010 | 45 | 231 | 3.0 | 4.0 | 0.00 | 0.00 | 0.00 | 54 | 1010.5 |
| 20260508025501 | 45 | 229 | 2.0 | 4.0 | 0.00 | 0.00 | 0.00 | 50 | 1010.5 |
| 20260508025003 | 46 | 230 | 1.0 | 3.0 | 0.00 | 0.00 | 0.00 | 48 | 1010.5 |
| 20260508024523 | 46 | 221 | 1.0 | 3.0 | 0.00 | 0.00 | 0.00 | 46 | 1010.4 |
| 20260508024008 | 46 | 254 | 1.0 | 3.0 | 0.00 | 0.00 | 0.00 | 45 | 1010.4 |
| 20260508023506 | 46 | 247 | 1.0 | 2.0 | 0.00 | 0.00 | 0.00 | 44 | 1010.4 |
| 20260508023010 | 47 | 265 | 1.0 | 2.0 | 0.00 | 0.00 | 0.00 | 42 | 1010.4 |
| 20260508022506 | 47 | 232 | 1.0 | 2.0 | 0.00 | 0.00 | 0.00 | 41 | 1010.3 |
| 20260508022007 | 48 | 255 | 1.0 | 2.0 | 0.00 | 0.00 | 0.00 | 40 | 1010.2 |
| 20260508021508 | 48 | 254 | 1.0 | 2.0 | 0.00 | 0.00 | 0.00 | 41 | 1010.1 |
| 20260508021002 | 49 | 254 | 1.0 | 2.0 | 0.00 | 0.00 | 0.00 | 40 | 1010.1 |
| 20260508020502 | 49 | 250 | 1.0 | 2.0 | 0.00 | 0.00 | 0.00 | 38 | 1010.0 |
| 20260508020014 | 50 | 265 | 1.0 | 2.0 | 0.00 | 0.00 | 0.00 | 38 | 1009.9 |
| 20260508015502 | 50 | 250 | 0.0 | 2.0 | 0.00 | 0.00 | 0.00 | 38 | 1009.9 |
| 20260508015005 | 51 | 221 | 0.0 | 2.0 | 0.00 | 0.00 | 0.00 | 37 | 1009.9 |
| 20260508014519 | 51 | 247 | 0.0 | 3.0 | 0.00 | 0.00 | 0.00 | 39 | 1009.8 |
| 20260508014007 | 52 | 265 | 1.0 | 3.0 | 0.00 | 0.00 | 0.00 | 40 | 1009.8 |
| 20260508013504 | 52 | 238 | 1.0 | 3.0 | 0.00 | 0.00 | 0.00 | 37 | 1009.8 |
| 20260508013017 | 53 | 247 | 1.0 | 3.0 | 0.00 | 0.00 | 0.00 | 38 | 1009.8 |
| 20260508012510 | 53 | 282 | 1.0 | 4.0 | 0.00 | 0.00 | 0.00 | 43 | 1009.8 |
| 20260508012004 | 54 | 265 | 1.0 | 4.0 | 0.00 | 0.00 | 0.00 | 43 | 1009.8 |
| 20260508011518 | 54 | 277 | 1.0 | 4.0 | 0.00 | 0.00 | 0.00 | 33 | 1009.6 |
| 20260508011003 | 55 | 270 | 1.0 | 4.0 | 0.00 | 0.00 | 0.00 | 35 | 1009.5 |
| 20260508010503 | 55 | 265 | 0.0 | 4.0 | 0.00 | 0.00 | 0.00 | 37 | 1009.5 |
| 20260508010011 | 55 | 291 | 2.0 | 7.0 | 0.00 | 0.00 | 0.00 | 32 | 1009.6 |
| 20260508005513 | 56 | 309 | 1.0 | 7.0 | 0.00 | 0.00 | 0.00 | 31 | 1009.6 |
| 20260508005005 | 56 | 282 | 1.0 | 6.0 | 0.00 | 0.00 | 0.00 | 29 | 1009.6 |
| 20260508004506 | 56 | 309 | 2.0 | 3.0 | 0.00 | 0.00 | 0.00 | 31 | 1009.7 |
| 20260508004008 | 56 | 298 | 1.0 | 9.0 | 0.00 | 0.00 | 0.00 | 29 | 1009.7 |
| 20260508003509 | 56 | 301 | 2.0 | 9.0 | 0.00 | 0.00 | 0.00 | 31 | 1009.6 |
| 20260508003035 | 57 | 330 | 6.0 | 13.0 | 0.00 | 0.00 | 0.00 | 27 | 1009.6 |
| 20260508002502 | 57 | 292 | 7.0 | 13.0 | 0.00 | 0.00 | 0.00 | 28 | 1009.6 |
| 20260508002008 | 57 | 236 | 5.0 | 10.0 | 0.00 | 0.00 | 0.00 | 28 | 1009.7 |
| 20260508001527 | 57 | 265 | 5.0 | 11.0 | 0.00 | 0.00 | 0.00 | 29 | 1009.6 |
| 20260508001003 | 57 | 321 | 4.0 | 13.0 | 0.00 | 0.00 | 0.00 | 28 | 1009.6 |
| 20260508000502 | 58 | 257 | 5.0 | 13.0 | 0.00 | 0.00 | 0.00 | 27 | 1009.7 |
| 20260508000013 | 58 | 279 | 6.0 | 11.0 | 0.00 | 0.00 | 0.00 | 26 | 1009.6 |
| 20260507235507 | 58 | 329 | 4.0 | 12.0 | 0.00 | 0.00 | 0.00 | 26 | 1009.7 |
| 20260507235003 | 58 | 314 | 5.0 | 12.0 | 0.00 | 0.00 | 0.00 | 26 | 1009.7 |
| 20260507234520 | 58 | 328 | 5.0 | 12.0 | 0.00 | 0.00 | 0.00 | 27 | 1009.8 |
| 20260507234007 | 58 | 275 | 4.0 | 12.0 | 0.00 | 0.00 | 0.00 | 27 | 1009.9 |
| 20260507233509 | 58 | 54 | 4.0 | 10.0 | 0.00 | 0.00 | 0.00 | 28 | 1009.9 |
| 20260507233017 | 58 | 265 | 5.0 | 11.0 | 0.00 | 0.00 | 0.00 | 26 | 1010.0 |
| 20260507232510 | 59 | 28 | 5.0 | 14.0 | 0.00 | 0.00 | 0.00 | 24 | 1010.0 |
| 20260507232012 | 59 | 329 | 5.0 | 14.0 | 0.00 | 0.00 | 0.00 | 26 | 1010.0 |
| 20260507231509 | 59 | 328 | 6.0 | 14.0 | 0.00 | 0.00 | 0.00 | 28 | 1010.1 |
| 20260507231002 | 59 | 339 | 8.0 | 14.0 | 0.00 | 0.00 | 0.00 | 25 | 1010.1 |
| 20260507230506 | 59 | 257 | 6.0 | 14.0 | 0.00 | 0.00 | 0.00 | 25 | 1010.1 |
| 20260507230023 | 59 | 344 | 8.0 | 14.0 | 0.00 | 0.00 | 0.00 | 25 | 1010.1 |
| 20260507225504 | 59 | 265 | 9.0 | 16.0 | 0.00 | 0.00 | 0.00 | 25 | 1010.1 |
| 20260507225008 | 58 | 294 | 4.0 | 16.0 | 0.00 | 0.00 | 0.00 | 26 | 1010.1 |
| 20260507224523 | 59 | 232 | 7.0 | 14.0 | 0.00 | 0.00 | 0.00 | 27 | 1010.2 |
| 20260507224004 | 59 | 303 | 7.0 | 14.0 | 0.00 | 0.00 | 0.00 | 24 | 1010.2 |
| 20260507223508 | 59 | 257 | 7.0 | 14.0 | 0.00 | 0.00 | 0.00 | 27 | 1010.3 |
| 20260507223022 | 59 | 265 | 7.0 | 16.0 | 0.00 | 0.00 | 0.00 | 27 | 1010.3 |
| 20260507222512 | 59 | 250 | 8.0 | 16.0 | 0.00 | 0.00 | 0.00 | 26 | 1010.2 |
| 20260507222006 | 58 | 305 | 3.0 | 13.0 | 0.00 | 0.00 | 0.00 | 26 | 1010.3 |
| 20260507221512 | 59 | 284 | 8.0 | 14.0 | 0.00 | 0.00 | 0.00 | 30 | 1010.3 |
| 20260507221006 | 58 | 275 | 7.0 | 18.0 | 0.00 | 0.00 | 0.00 | 27 | 1010.2 |
| 20260507220502 | 59 | 279 | 11.0 | 18.0 | 0.00 | 0.00 | 0.00 | 25 | 1010.4 |
| 20260507220020 | 59 | 34 | 5.0 | 16.0 | 0.00 | 0.00 | 0.00 | 28 | 1010.2 |
| 20260507215509 | 58 | 287 | 3.0 | 15.0 | 0.00 | 0.00 | 0.00 | 28 | 1010.4 |
| 20260507215006 | 58 | 328 | 6.0 | 15.0 | 0.00 | 0.00 | 0.00 | 27 | 1010.4 |
| 20260507214513 | 59 | 277 | 5.0 | 17.0 | 0.00 | 0.00 | 0.00 | 27 | 1010.4 |
| 20260507214008 | 59 | 111 | 3.0 | 17.0 | 0.00 | 0.00 | 0.00 | 24 | 1010.5 |
| 20260507213508 | 58 | 277 | 9.0 | 16.0 | 0.00 | 0.00 | 0.00 | 25 | 1010.5 |
| 20260507213031 | 58 | 304 | 9.0 | 16.0 | 0.00 | 0.00 | 0.00 | 29 | 1010.5 |
| 20260507212506 | 58 | 257 | 6.0 | 14.0 | 0.00 | 0.00 | 0.00 | 27 | 1010.4 |
| 20260507212012 | 58 | 261 | 6.0 | 15.0 | 0.00 | 0.00 | 0.00 | 26 | 1010.6 |
| 20260507211514 | 58 | 339 | 6.0 | 15.0 | 0.00 | 0.00 | 0.00 | 27 | 1010.6 |
| 20260507211006 | 58 | 236 | 6.0 | 13.0 | 0.00 | 0.00 | 0.00 | 31 | 1010.7 |
| 20260507210505 | 58 | 270 | 9.0 | 16.0 | 0.00 | 0.00 | 0.00 | 30 | 1010.9 |
| 20260507210018 | 58 | 291 | 9.0 | 18.0 | 0.00 | 0.00 | 0.00 | 27 | 1010.9 |
| 20260507205509 | 58 | 265 | 10.0 | 18.0 | 0.00 | 0.00 | 0.00 | 28 | 1010.9 |
| 20260507205008 | 58 | 236 | 5.0 | 13.0 | 0.00 | 0.00 | 0.00 | 29 | 1010.9 |
| 20260507204522 | 57 | 298 | 3.0 | 14.0 | 0.00 | 0.00 | 0.00 | 26 | 1011.0 |
| 20260507204009 | 57 | 244 | 10.0 | 16.0 | 0.00 | 0.00 | 0.00 | 26 | 1011.0 |
| 20260507203508 | 57 | 317 | 7.0 | 17.0 | 0.00 | 0.00 | 0.00 | 27 | 1011.0 |
| 20260507203022 | 57 | 279 | 10.0 | 17.0 | 0.00 | 0.00 | 0.00 | 27 | 1011.1 |
| 20260507202510 | 57 | 330 | 6.0 | 15.0 | 0.00 | 0.00 | 0.00 | 25 | 1011.1 |
| 20260507202010 | 56 | 304 | 1.0 | 15.0 | 0.00 | 0.00 | 0.00 | 29 | 1011.1 |
| 20260507201513 | 56 | 9 | 3.0 | 15.0 | 0.00 | 0.00 | 0.00 | 27 | 1011.2 |
| 20260507201004 | 57 | 321 | 5.0 | 15.0 | 0.00 | 0.00 | 0.00 | 27 | 1011.1 |
| 20260507200502 | 57 | 293 | 7.0 | 17.0 | 0.00 | 0.00 | 0.00 | 28 | 1011.2 |
| 20260507200002 | 57 | 228 | 4.0 | 17.0 | 0.00 | 0.00 | 0.00 | 31 | 1011.2 |
| 20260507195502 | 57 | 236 | 8.0 | 15.0 | 0.00 | 0.00 | 0.00 | 26 | 1011.4 |
| 20260507195002 | 56 | 221 | 2.0 | 15.0 | 0.00 | 0.00 | 0.00 | 28 | 1011.3 |
| 20260507194506 | 57 | 259 | 6.0 | 15.0 | 0.00 | 0.00 | 0.00 | 32 | 1011.3 |
| 20260507194002 | 57 | 250 | 5.0 | 15.0 | 0.00 | 0.00 | 0.00 | 31 | 1011.6 |
| 20260507193502 | 56 | 289 | 8.0 | 14.0 | 0.00 | 0.00 | 0.00 | 32 | 1011.7 |
| 20260507193007 | 56 | 217 | 8.0 | 18.0 | 0.00 | 0.00 | 0.00 | 31 | 1011.6 |
| 20260507192508 | 56 | 281 | 11.0 | 18.0 | 0.00 | 0.00 | 0.00 | 25 | 1011.7 |
| 20260507192001 | 56 | 218 | 2.0 | 8.0 | 0.00 | 0.00 | 0.00 | 31 | 1011.6 |
| 20260507191507 | 55 | 282 | 2.0 | 12.0 | 0.00 | 0.00 | 0.00 | 29 | 1011.7 |
| 20260507191003 | 55 | 316 | 4.0 | 12.0 | 0.00 | 0.00 | 0.00 | 26 | 1011.6 |
| 20260507190503 | 56 | 341 | 5.0 | 13.0 | 0.00 | 0.00 | 0.00 | 29 | 1011.8 |
| 20260507190008 | 56 | 302 | 7.0 | 13.0 | 0.00 | 0.00 | 0.00 | 27 | 1011.8 |
| 20260507185503 | 56 | 306 | 5.0 | 11.0 | 0.00 | 0.00 | 0.00 | 34 | 1011.9 |
| 20260507185002 | 55 | 54 | 1.0 | 11.0 | 0.00 | 0.00 | 0.00 | 27 | 1011.9 |
| 20260507184507 | 55 | 9 | 2.0 | 13.0 | 0.00 | 0.00 | 0.00 | 29 | 1011.8 |
| 20260507184001 | 54 | 336 | 2.0 | 15.0 | 0.00 | 0.00 | 0.00 | 34 | 1012.0 |
| 20260507183505 | 54 | 93 | 7.0 | 17.0 | 0.00 | 0.00 | 0.00 | 34 | 1012.0 |
| 20260507183018 | 55 | 297 | 10.0 | 17.0 | 0.00 | 0.00 | 0.00 | 30 | 1012.1 |
| 20260507182503 | 54 | 261 | 4.0 | 14.0 | 0.00 | 0.00 | 0.00 | 32 | 1012.0 |
| 20260507182002 | 54 | 275 | 9.0 | 14.0 | 0.00 | 0.00 | 0.00 | 33 | 1012.1 |
| 20260507181516 | 54 | 287 | 4.0 | 12.0 | 0.00 | 0.00 | 0.00 | 35 | 1012.1 |
| 20260507181006 | 53 | 22 | 2.0 | 12.0 | 0.00 | 0.00 | 0.00 | 32 | 1012.1 |
| 20260507180502 | 54 | 287 | 3.0 | 14.0 | 0.00 | 0.00 | 0.00 | 32 | 1012.2 |
| 20260507180006 | 55 | 344 | 6.0 | 14.0 | 0.00 | 0.00 | 0.00 | 31 | 1012.1 |
| 20260507175504 | 55 | 317 | 3.0 | 13.0 | 0.00 | 0.00 | 0.00 | 31 | 1012.1 |
| 20260507175003 | 55 | 13 | 4.0 | 13.0 | 0.00 | 0.00 | 0.00 | 31 | 1012.1 |
| 20260507174511 | 55 | 332 | 5.0 | 13.0 | 0.00 | 0.00 | 0.00 | 29 | 1012.1 |
| 20260507174003 | 55 | 334 | 4.0 | 12.0 | 0.00 | 0.00 | 0.00 | 28 | 1012.2 |
| 20260507173510 | 55 | 346 | 4.0 | 16.0 | 0.00 | 0.00 | 0.00 | 29 | 1012.3 |
| 20260507173006 | 55 | 38 | 5.0 | 16.0 | 0.00 | 0.00 | 0.00 | 32 | 1012.3 |
| 20260507172503 | 55 | 47 | 5.0 | 13.0 | 0.00 | 0.00 | 0.00 | 32 | 1012.3 |
| 20260507172007 | 54 | 65 | 4.0 | 16.0 | 0.00 | 0.00 | 0.00 | 33 | 1012.3 |
| 20260507171503 | 54 | 316 | 7.0 | 16.0 | 0.00 | 0.00 | 0.00 | 30 | 1012.5 |
| 20260507171003 | 54 | 344 | 5.0 | 15.0 | 0.00 | 0.00 | 0.00 | 30 | 1012.5 |
| 20260507170503 | 54 | 302 | 6.0 | 17.0 | 0.00 | 0.00 | 0.00 | 31 | 1012.5 |